Year,Month,Day,Hour,Minute,Value (Times are PST for windgust in km/hr)
2014,06,18,00,40,1.60
2014,06,18,00,42,1.60
2014,06,18,00,43,1.60
2014,06,18,00,44,1.60
2014,06,18,00,45,1.60
2014,06,18,00,46,1.60
2014,06,18,00,47,1.60
2014,06,18,00,59,1.60
2014,06,18,01,00,1.60
2014,06,18,01,03,1.60
2014,06,18,01,05,1.60
2014,06,18,01,06,1.60
2014,06,18,01,07,1.60
2014,06,18,01,08,1.60
2014,06,18,01,09,1.60
2014,06,18,01,10,1.60
2014,06,18,01,11,1.60
2014,06,18,01,12,1.60
2014,06,18,01,13,1.60
2014,06,18,01,52,1.60
2014,06,18,01,53,1.60
2014,06,18,01,54,3.20
2014,06,18,01,55,3.20
2014,06,18,01,56,3.20
2014,06,18,01,57,3.20
2014,06,18,01,58,3.20
2014,06,18,01,59,1.60
2014,06,18,02,00,1.60
2014,06,18,02,01,3.20
2014,06,18,02,02,1.60
2014,06,18,02,03,1.60
2014,06,18,02,04,1.60
2014,06,18,02,05,1.60
2014,06,18,02,15,1.60
2014,06,18,03,00,1.60
2014,06,18,03,01,1.60
2014,06,18,03,02,1.60
2014,06,18,03,03,1.60
2014,06,18,03,04,3.20
2014,06,18,03,05,1.60
2014,06,18,03,06,1.60
2014,06,18,03,07,1.60
2014,06,18,03,08,1.60
2014,06,18,03,09,1.60
2014,06,18,03,11,1.60
2014,06,18,03,12,1.60
2014,06,18,03,44,1.60
2014,06,18,03,46,1.60
2014,06,18,03,47,4.80
2014,06,18,03,48,4.80
2014,06,18,03,49,8.10
2014,06,18,03,50,6.40
2014,06,18,03,51,8.10
2014,06,18,03,52,6.40
2014,06,18,03,53,8.10
2014,06,18,03,54,4.80
2014,06,18,03,55,6.40
2014,06,18,03,56,4.80
2014,06,18,03,57,3.20
2014,06,18,03,58,4.80
2014,06,18,03,59,4.80
2014,06,18,04,00,4.80
2014,06,18,04,01,4.80
2014,06,18,04,02,6.40
2014,06,18,04,03,4.80
2014,06,18,04,04,4.80
2014,06,18,04,05,4.80
2014,06,18,04,06,6.40
2014,06,18,04,07,6.40
2014,06,18,04,08,4.80
2014,06,18,04,09,8.10
2014,06,18,04,10,4.80
2014,06,18,04,11,4.80
2014,06,18,04,12,6.40
2014,06,18,04,13,8.10
2014,06,18,04,14,9.60
2014,06,18,04,15,8.10
2014,06,18,04,16,6.40
2014,06,18,04,17,8.10
2014,06,18,04,18,8.10
2014,06,18,04,19,8.10
2014,06,18,04,20,8.10
2014,06,18,04,21,9.60
2014,06,18,04,22,8.10
2014,06,18,04,23,6.40
2014,06,18,04,24,8.10
2014,06,18,04,25,8.10
2014,06,18,04,26,6.40
2014,06,18,04,27,8.10
2014,06,18,04,28,6.40
2014,06,18,04,29,6.40
2014,06,18,04,30,8.10
2014,06,18,04,31,8.10
2014,06,18,04,32,4.80
2014,06,18,04,33,3.20
2014,06,18,04,34,4.80
2014,06,18,04,35,3.20
2014,06,18,04,36,3.20
2014,06,18,04,37,1.60
2014,06,18,04,38,1.60
2014,06,18,04,39,4.80
2014,06,18,04,40,3.20
2014,06,18,04,41,6.40
2014,06,18,04,42,4.80
2014,06,18,04,43,3.20
2014,06,18,04,44,3.20
2014,06,18,04,45,4.80
2014,06,18,04,46,6.40
2014,06,18,04,47,4.80
2014,06,18,04,48,4.80
2014,06,18,04,49,3.20
2014,06,18,04,50,4.80
2014,06,18,04,51,4.80
2014,06,18,04,52,4.80
2014,06,18,04,53,4.80
2014,06,18,04,54,4.80
2014,06,18,04,55,4.80
2014,06,18,04,56,3.20
2014,06,18,04,57,3.20
2014,06,18,04,58,1.60
2014,06,18,04,59,3.20
2014,06,18,05,00,3.20
2014,06,18,05,01,4.80
2014,06,18,05,02,4.80
2014,06,18,05,03,4.80
2014,06,18,05,04,4.80
2014,06,18,05,05,4.80
2014,06,18,05,06,3.20
2014,06,18,05,07,3.20
2014,06,18,05,08,3.20
2014,06,18,05,09,3.20
2014,06,18,05,10,1.60
2014,06,18,05,11,1.60
2014,06,18,05,12,3.20
2014,06,18,05,13,1.60
2014,06,18,05,15,1.60
2014,06,18,05,16,1.60
2014,06,18,05,17,1.60
2014,06,18,05,22,1.60
2014,06,18,05,49,1.60
2014,06,18,05,50,1.60
2014,06,18,05,51,1.60
2014,06,18,06,35,1.60
2014,06,18,06,36,3.20
2014,06,18,06,37,3.20
2014,06,18,06,38,4.80
2014,06,18,06,39,4.80
2014,06,18,06,40,3.20
2014,06,18,06,41,4.80
2014,06,18,06,42,4.80
2014,06,18,06,43,4.80
2014,06,18,06,44,4.80
2014,06,18,06,45,4.80
2014,06,18,06,46,4.80
2014,06,18,06,47,6.40
2014,06,18,06,48,6.40
2014,06,18,06,49,4.80
2014,06,18,06,50,4.80
2014,06,18,06,51,4.80
2014,06,18,06,52,4.80
2014,06,18,06,53,6.40
2014,06,18,06,54,3.20
2014,06,18,06,55,4.80
2014,06,18,06,56,3.20
2014,06,18,06,57,4.80
2014,06,18,06,58,4.80
2014,06,18,06,59,3.20
2014,06,18,07,00,3.20
2014,06,18,07,01,3.20
2014,06,18,07,02,1.60
2014,06,18,07,03,4.80
2014,06,18,07,04,3.20
2014,06,18,07,05,3.20
2014,06,18,07,06,3.20
2014,06,18,07,07,4.80
2014,06,18,07,08,3.20
2014,06,18,07,09,4.80
2014,06,18,07,10,4.80
2014,06,18,07,11,1.60
2014,06,18,07,12,3.20
2014,06,18,07,13,3.20
2014,06,18,07,14,3.20
2014,06,18,07,15,3.20
2014,06,18,07,16,4.80
2014,06,18,07,17,4.80
2014,06,18,07,18,3.20
2014,06,18,07,19,3.20
2014,06,18,07,20,3.20
2014,06,18,07,21,3.20
2014,06,18,07,22,3.20
2014,06,18,07,23,1.60
2014,06,18,07,24,3.20
2014,06,18,07,25,3.20
2014,06,18,07,26,3.20
2014,06,18,07,27,4.80
2014,06,18,07,28,4.80
2014,06,18,07,29,4.80
2014,06,18,07,30,4.80
2014,06,18,07,31,6.40
2014,06,18,07,32,4.80
2014,06,18,07,33,6.40
2014,06,18,07,34,6.40
2014,06,18,07,35,4.80
2014,06,18,07,36,6.40
2014,06,18,07,37,3.20
2014,06,18,07,38,4.80
2014,06,18,07,39,4.80
2014,06,18,07,40,4.80
2014,06,18,07,41,4.80
2014,06,18,07,42,4.80
2014,06,18,07,43,4.80
2014,06,18,07,44,6.40
2014,06,18,07,45,4.80
2014,06,18,07,46,4.80
2014,06,18,07,47,4.80
2014,06,18,07,48,3.20
2014,06,18,07,49,4.80
2014,06,18,07,50,6.40
2014,06,18,07,51,6.40
2014,06,18,07,52,4.80
2014,06,18,07,53,8.10
2014,06,18,07,54,8.10
2014,06,18,07,55,4.80
2014,06,18,07,56,4.80
2014,06,18,07,57,4.80
2014,06,18,07,58,4.80
2014,06,18,07,59,4.80
2014,06,18,08,00,4.80
2014,06,18,08,01,4.80
2014,06,18,08,02,6.40
2014,06,18,08,03,6.40
2014,06,18,08,04,6.40
2014,06,18,08,05,8.10
2014,06,18,08,06,6.40
2014,06,18,08,07,6.40
2014,06,18,08,08,6.40
2014,06,18,08,09,6.40
2014,06,18,08,10,6.40
2014,06,18,08,11,8.10
2014,06,18,08,12,6.40
2014,06,18,08,13,6.40
2014,06,18,08,14,8.10
2014,06,18,08,15,8.10
2014,06,18,08,16,6.40
2014,06,18,08,17,6.40
2014,06,18,08,18,6.40
2014,06,18,08,19,8.10
2014,06,18,08,20,6.40
2014,06,18,08,21,6.40
2014,06,18,08,22,6.40
2014,06,18,08,23,4.80
2014,06,18,08,24,6.40
2014,06,18,08,25,6.40
2014,06,18,08,26,8.10
2014,06,18,08,27,8.10
2014,06,18,08,28,9.60
2014,06,18,08,29,6.40
2014,06,18,08,30,8.10
2014,06,18,08,31,6.40
2014,06,18,08,32,9.60
2014,06,18,08,33,9.60
2014,06,18,08,34,9.60
2014,06,18,08,35,8.10
2014,06,18,08,36,6.40
2014,06,18,08,37,8.10
2014,06,18,08,38,8.10
2014,06,18,08,39,6.40
2014,06,18,08,40,6.40
2014,06,18,08,41,6.40
2014,06,18,08,42,6.40
2014,06,18,08,43,6.40
2014,06,18,08,44,4.80
2014,06,18,08,45,6.40
2014,06,18,08,46,6.40
2014,06,18,08,47,6.40
2014,06,18,08,48,6.40
2014,06,18,08,49,4.80
2014,06,18,08,50,4.80
2014,06,18,08,51,4.80
2014,06,18,08,52,4.80
2014,06,18,08,53,6.40
2014,06,18,08,54,4.80
2014,06,18,08,55,6.40
2014,06,18,08,56,4.80
2014,06,18,08,57,4.80
2014,06,18,08,58,4.80
2014,06,18,08,59,4.80
2014,06,18,09,00,4.80
2014,06,18,09,01,4.80
2014,06,18,09,02,4.80
2014,06,18,09,03,4.80
2014,06,18,09,04,6.40
2014,06,18,09,05,8.10
2014,06,18,09,06,6.40
2014,06,18,09,07,6.40
2014,06,18,09,08,6.40
2014,06,18,09,09,6.40
2014,06,18,09,10,6.40
2014,06,18,09,11,8.10
2014,06,18,09,12,8.10
2014,06,18,09,13,6.40
2014,06,18,09,14,8.10
2014,06,18,09,15,6.40
2014,06,18,09,16,6.40
2014,06,18,09,17,6.40
2014,06,18,09,18,8.10
2014,06,18,09,19,6.40
2014,06,18,09,20,6.40
2014,06,18,09,21,6.40
2014,06,18,09,22,6.40
2014,06,18,09,23,4.80
2014,06,18,09,24,6.40
2014,06,18,09,25,6.40
2014,06,18,09,26,6.40
2014,06,18,09,27,6.40
2014,06,18,09,28,6.40
2014,06,18,09,29,4.80
2014,06,18,09,30,8.10
2014,06,18,09,31,8.10
2014,06,18,09,32,6.40
2014,06,18,09,33,6.40
2014,06,18,09,34,6.40
2014,06,18,09,35,8.10
2014,06,18,09,36,9.60
2014,06,18,09,37,6.40
2014,06,18,09,38,6.40
2014,06,18,09,39,8.10
2014,06,18,09,40,8.10
2014,06,18,09,41,8.10
2014,06,18,09,42,8.10
2014,06,18,09,43,8.10
2014,06,18,09,44,8.10
2014,06,18,09,45,9.60
2014,06,18,09,46,9.60
2014,06,18,09,47,8.10
2014,06,18,09,48,9.60
2014,06,18,09,49,8.10
2014,06,18,09,50,9.60
2014,06,18,09,51,9.60
2014,06,18,09,52,9.60
2014,06,18,09,53,9.60
2014,06,18,09,54,9.60
2014,06,18,09,55,8.10
2014,06,18,09,56,8.10
2014,06,18,09,57,8.10
2014,06,18,09,58,8.10
2014,06,18,09,59,8.10
2014,06,18,10,00,4.80
2014,06,18,10,01,8.10
2014,06,18,10,02,9.60
2014,06,18,10,03,6.40
2014,06,18,10,04,8.10
2014,06,18,10,05,6.40
2014,06,18,10,06,6.40
2014,06,18,10,07,8.10
2014,06,18,10,08,6.40
2014,06,18,10,09,6.40
2014,06,18,10,10,6.40
2014,06,18,10,11,6.40
2014,06,18,10,12,8.10
2014,06,18,10,13,8.10
2014,06,18,10,14,8.10
2014,06,18,10,15,8.10
2014,06,18,10,16,8.10
2014,06,18,10,17,8.10
2014,06,18,10,18,6.40
2014,06,18,10,19,6.40
2014,06,18,10,20,6.40
2014,06,18,10,21,8.10
2014,06,18,10,22,4.80
2014,06,18,10,23,6.40
2014,06,18,10,24,4.80
2014,06,18,10,25,6.40
2014,06,18,10,26,6.40
2014,06,18,10,27,6.40
2014,06,18,10,28,6.40
2014,06,18,10,29,6.40
2014,06,18,10,30,6.40
2014,06,18,10,31,6.40
2014,06,18,10,32,8.10
2014,06,18,10,33,6.40
2014,06,18,10,34,6.40
2014,06,18,10,35,8.10
2014,06,18,10,36,6.40
2014,06,18,10,37,6.40
2014,06,18,10,38,4.80
2014,06,18,10,39,6.40
2014,06,18,10,40,4.80
2014,06,18,10,41,8.10
2014,06,18,10,42,6.40
2014,06,18,10,43,9.60
2014,06,18,10,44,8.10
2014,06,18,10,45,9.60
2014,06,18,10,46,8.10
2014,06,18,10,47,9.60
2014,06,18,10,48,9.60
2014,06,18,10,49,9.60
2014,06,18,10,50,11.30
2014,06,18,10,51,9.60
2014,06,18,10,52,11.30
2014,06,18,10,53,9.60
2014,06,18,10,54,9.60
2014,06,18,10,55,9.60
2014,06,18,10,56,11.30
2014,06,18,10,57,11.30
2014,06,18,10,58,11.30
2014,06,18,10,59,11.30
2014,06,18,11,00,11.30
2014,06,18,11,01,8.10
2014,06,18,11,02,8.10
2014,06,18,11,03,11.30
2014,06,18,11,04,9.60
2014,06,18,11,05,6.40
2014,06,18,11,06,9.60
2014,06,18,11,07,11.30
2014,06,18,11,08,12.90
2014,06,18,11,09,11.30
2014,06,18,11,10,11.30
2014,06,18,11,11,11.30
2014,06,18,11,12,6.40
2014,06,18,11,13,8.10
2014,06,18,11,14,8.10
2014,06,18,11,15,9.60
2014,06,18,11,16,11.30
2014,06,18,11,17,6.40
2014,06,18,11,18,8.10
2014,06,18,11,19,6.40
2014,06,18,11,20,9.60
2014,06,18,11,21,9.60
2014,06,18,11,22,9.60
2014,06,18,11,23,11.30
2014,06,18,11,24,9.60
2014,06,18,11,25,11.30
2014,06,18,11,26,12.90
2014,06,18,11,27,12.90
2014,06,18,11,28,11.30
2014,06,18,11,29,14.50
2014,06,18,11,30,11.30
2014,06,18,11,31,9.60
2014,06,18,11,32,11.30
2014,06,18,11,33,12.90
2014,06,18,11,34,12.90
2014,06,18,11,35,12.90
2014,06,18,11,36,12.90
2014,06,18,11,37,11.30
2014,06,18,11,38,12.90
2014,06,18,11,39,9.60
2014,06,18,11,40,12.90
2014,06,18,11,41,11.30
2014,06,18,11,42,16.10
2014,06,18,11,43,16.10
2014,06,18,11,44,11.30
2014,06,18,11,45,11.30
2014,06,18,11,46,11.30
2014,06,18,11,47,9.60
2014,06,18,11,48,11.30
2014,06,18,11,49,12.90
2014,06,18,11,50,12.90
2014,06,18,11,51,12.90
2014,06,18,11,52,14.50
2014,06,18,11,53,11.30
2014,06,18,11,54,12.90
2014,06,18,11,55,11.30
2014,06,18,11,56,14.50
2014,06,18,11,57,12.90
2014,06,18,11,58,14.50
2014,06,18,11,59,9.60
2014,06,18,12,00,14.50
2014,06,18,12,01,11.30
2014,06,18,12,02,11.30
2014,06,18,12,03,11.30
2014,06,18,12,04,14.50
2014,06,18,12,05,14.50
2014,06,18,12,06,11.30
2014,06,18,12,07,12.90
2014,06,18,12,08,14.50
2014,06,18,12,09,14.50
2014,06,18,12,10,12.90
2014,06,18,12,11,12.90
2014,06,18,12,12,12.90
2014,06,18,12,13,12.90
2014,06,18,12,14,12.90
2014,06,18,12,15,19.30
2014,06,18,12,16,14.50
2014,06,18,12,17,12.90
2014,06,18,12,18,9.60
2014,06,18,12,19,11.30
2014,06,18,12,20,11.30
2014,06,18,12,21,11.30
2014,06,18,12,22,14.50
2014,06,18,12,23,19.30
2014,06,18,12,24,14.50
2014,06,18,12,25,14.50
2014,06,18,12,26,14.50
2014,06,18,12,27,12.90
2014,06,18,12,28,14.50
2014,06,18,12,29,14.50
2014,06,18,12,30,12.90
2014,06,18,12,31,11.30
2014,06,18,12,32,20.90
2014,06,18,12,33,17.70
2014,06,18,12,34,16.10
2014,06,18,12,35,14.50
2014,06,18,12,36,20.90
2014,06,18,12,37,16.10
2014,06,18,12,38,19.30
2014,06,18,12,39,17.70
2014,06,18,12,40,19.30
2014,06,18,12,41,16.10
2014,06,18,12,42,19.30
2014,06,18,12,43,17.70
2014,06,18,12,44,16.10
2014,06,18,12,45,16.10
2014,06,18,12,46,22.50
2014,06,18,12,47,17.70
2014,06,18,12,48,17.70
2014,06,18,12,49,16.10
2014,06,18,12,50,14.50
2014,06,18,12,51,14.50
2014,06,18,12,52,14.50
2014,06,18,12,53,14.50
2014,06,18,12,54,19.30
2014,06,18,12,55,14.50
2014,06,18,12,56,16.10
2014,06,18,12,57,16.10
2014,06,18,12,58,16.10
2014,06,18,12,59,17.70
2014,06,18,13,00,17.70
2014,06,18,13,01,17.70
2014,06,18,13,02,20.90
2014,06,18,13,03,22.50
2014,06,18,13,04,22.50
2014,06,18,13,05,17.70
2014,06,18,13,06,24.20
2014,06,18,13,07,20.90
2014,06,18,13,08,24.20
2014,06,18,13,09,19.30
2014,06,18,13,10,20.90
2014,06,18,13,11,20.90
2014,06,18,13,12,24.20
2014,06,18,13,13,20.90
2014,06,18,13,14,17.70
2014,06,18,13,15,22.50
2014,06,18,13,16,19.30
2014,06,18,13,17,19.30
2014,06,18,13,18,22.50
2014,06,18,13,19,22.50
2014,06,18,13,20,22.50
2014,06,18,13,21,16.10
2014,06,18,13,22,17.70
2014,06,18,13,23,14.50
2014,06,18,13,24,16.10
2014,06,18,13,25,19.30
2014,06,18,13,26,14.50
2014,06,18,13,27,20.90
2014,06,18,13,28,27.40
2014,06,18,13,29,17.70
2014,06,18,13,30,27.40
2014,06,18,13,31,22.50
2014,06,18,13,32,27.40
2014,06,18,13,33,24.20
2014,06,18,13,34,20.90
2014,06,18,13,35,22.50
2014,06,18,13,36,25.70
2014,06,18,13,37,25.70
2014,06,18,13,38,24.20
2014,06,18,13,39,20.90
2014,06,18,13,40,25.70
2014,06,18,13,41,22.50
2014,06,18,13,42,24.20
2014,06,18,13,43,22.50
2014,06,18,13,44,24.20
2014,06,18,13,45,22.50
2014,06,18,13,46,20.90
2014,06,18,13,47,24.20
2014,06,18,13,48,20.90
2014,06,18,13,49,20.90
2014,06,18,13,50,24.20
2014,06,18,13,51,17.70
2014,06,18,13,52,16.10
2014,06,18,13,53,20.90
2014,06,18,13,54,22.50
2014,06,18,13,55,19.30
2014,06,18,13,56,19.30
2014,06,18,13,57,24.20
2014,06,18,13,58,22.50
2014,06,18,13,59,20.90
2014,06,18,14,00,16.10
2014,06,18,14,01,22.50
2014,06,18,14,02,22.50
2014,06,18,14,03,19.30
2014,06,18,14,04,19.30
2014,06,18,14,05,19.30
2014,06,18,14,06,20.90
2014,06,18,14,07,24.20
2014,06,18,14,08,22.50
2014,06,18,14,09,17.70
2014,06,18,14,10,16.10
2014,06,18,14,11,22.50
2014,06,18,14,12,19.30
2014,06,18,14,13,20.90
2014,06,18,14,14,20.90
2014,06,18,14,15,22.50
2014,06,18,14,16,22.50
2014,06,18,14,17,19.30
2014,06,18,14,18,17.70
2014,06,18,14,19,20.90
2014,06,18,14,20,17.70
2014,06,18,14,21,22.50
2014,06,18,14,22,24.20
2014,06,18,14,23,24.20
2014,06,18,14,24,22.50
2014,06,18,14,25,24.20
2014,06,18,14,26,20.90
2014,06,18,14,27,17.70
2014,06,18,14,28,20.90
2014,06,18,14,29,16.10
2014,06,18,14,30,20.90
2014,06,18,14,31,19.30
2014,06,18,14,32,19.30
2014,06,18,14,33,17.70
2014,06,18,14,34,19.30
2014,06,18,14,35,17.70
2014,06,18,14,36,16.10
2014,06,18,14,37,22.50
2014,06,18,14,38,17.70
2014,06,18,14,39,16.10
2014,06,18,14,40,17.70
2014,06,18,14,41,14.50
2014,06,18,14,42,16.10
2014,06,18,14,43,16.10
2014,06,18,14,44,14.50
2014,06,18,14,45,14.50
2014,06,18,14,46,17.70
2014,06,18,14,47,17.70
2014,06,18,14,48,22.50
2014,06,18,14,49,17.70
2014,06,18,14,50,17.70
2014,06,18,14,51,20.90
2014,06,18,14,52,17.70
2014,06,18,14,53,14.50
2014,06,18,14,54,16.10
2014,06,18,14,55,12.90
2014,06,18,14,56,12.90
2014,06,18,14,57,14.50
2014,06,18,14,58,14.50
2014,06,18,14,59,19.30
2014,06,18,15,00,20.90
2014,06,18,15,01,17.70
2014,06,18,15,02,22.50
2014,06,18,15,03,17.70
2014,06,18,15,04,19.30
2014,06,18,15,05,16.10
2014,06,18,15,06,17.70
2014,06,18,15,07,14.50
2014,06,18,15,08,14.50
2014,06,18,15,09,14.50
2014,06,18,15,10,17.70
2014,06,18,15,11,17.70
2014,06,18,15,12,12.90
2014,06,18,15,13,16.10
2014,06,18,15,14,16.10
2014,06,18,15,15,12.90
2014,06,18,15,16,12.90
2014,06,18,15,17,17.70
2014,06,18,15,18,22.50
2014,06,18,15,19,14.50
2014,06,18,15,20,22.50
2014,06,18,15,21,20.90
2014,06,18,15,22,20.90
2014,06,18,15,23,17.70
2014,06,18,15,24,19.30
2014,06,18,15,25,20.90
2014,06,18,15,26,20.90
2014,06,18,15,27,17.70
2014,06,18,15,28,17.70
2014,06,18,15,29,19.30
2014,06,18,15,30,25.70
2014,06,18,15,31,19.30
2014,06,18,15,32,22.50
2014,06,18,15,33,24.20
2014,06,18,15,34,20.90
2014,06,18,15,35,20.90
2014,06,18,15,36,24.20
2014,06,18,15,37,24.20
2014,06,18,15,38,24.20
2014,06,18,15,39,27.40
2014,06,18,15,40,30.60
2014,06,18,15,41,27.40
2014,06,18,15,42,24.20
2014,06,18,15,43,27.40
2014,06,18,15,44,22.50
2014,06,18,15,45,24.20
2014,06,18,15,46,24.20
2014,06,18,15,47,19.30
2014,06,18,15,48,17.70
2014,06,18,15,49,19.30
2014,06,18,15,50,27.40
2014,06,18,15,51,29.00
2014,06,18,15,52,25.70
2014,06,18,15,53,27.40
2014,06,18,15,54,29.00
2014,06,18,15,55,29.00
2014,06,18,15,56,30.60
2014,06,18,15,57,24.20
2014,06,18,15,58,19.30
2014,06,18,15,59,20.90
2014,06,18,16,00,29.00
2014,06,18,16,01,24.20
2014,06,18,16,02,20.90
2014,06,18,16,03,20.90
2014,06,18,16,04,22.50
2014,06,18,16,05,25.70
2014,06,18,16,06,24.20
2014,06,18,16,07,25.70
2014,06,18,16,08,27.40
2014,06,18,16,09,20.90
2014,06,18,16,10,24.20
2014,06,18,16,11,22.50
2014,06,18,16,12,25.70
2014,06,18,16,13,25.70
2014,06,18,16,14,22.50
2014,06,18,16,15,24.20
2014,06,18,16,16,29.00
2014,06,18,16,17,27.40
2014,06,18,16,18,25.70
2014,06,18,16,19,25.70
2014,06,18,16,20,22.50
2014,06,18,16,21,24.20
2014,06,18,16,22,20.90
2014,06,18,16,23,24.20
2014,06,18,16,24,20.90
2014,06,18,16,25,20.90
2014,06,18,16,26,20.90
2014,06,18,16,27,25.70
2014,06,18,16,28,27.40
2014,06,18,16,29,20.90
2014,06,18,16,30,22.50
2014,06,18,16,31,25.70
2014,06,18,16,32,24.20
2014,06,18,16,33,29.00
2014,06,18,16,34,20.90
2014,06,18,16,35,17.70
2014,06,18,16,36,22.50
2014,06,18,16,37,20.90
2014,06,18,16,38,25.70
2014,06,18,16,39,24.20
2014,06,18,16,40,22.50
2014,06,18,16,41,22.50
2014,06,18,16,42,22.50
2014,06,18,16,43,16.10
2014,06,18,16,44,20.90
2014,06,18,16,45,17.70
2014,06,18,16,46,22.50
2014,06,18,16,47,25.70
2014,06,18,16,48,27.40
2014,06,18,16,49,22.50
2014,06,18,16,50,22.50
2014,06,18,16,51,16.10
2014,06,18,16,52,16.10
2014,06,18,16,53,17.70
2014,06,18,16,54,17.70
2014,06,18,16,55,24.20
2014,06,18,16,56,24.20
2014,06,18,16,57,19.30
2014,06,18,16,58,29.00
2014,06,18,16,59,24.20
2014,06,18,17,00,19.30
2014,06,18,17,01,17.70
2014,06,18,17,02,22.50
2014,06,18,17,03,20.90
2014,06,18,17,04,20.90
2014,06,18,17,05,17.70
2014,06,18,17,06,22.50
2014,06,18,17,07,27.40
2014,06,18,17,08,19.30
2014,06,18,17,09,14.50
2014,06,18,17,10,22.50
2014,06,18,17,11,20.90
2014,06,18,17,12,20.90
2014,06,18,17,13,16.10
2014,06,18,17,14,19.30
2014,06,18,17,15,19.30
2014,06,18,17,16,17.70
2014,06,18,17,17,22.50
2014,06,18,17,18,20.90
2014,06,18,17,19,20.90
2014,06,18,17,20,24.20
2014,06,18,17,21,20.90
2014,06,18,17,22,20.90
2014,06,18,17,23,22.50
2014,06,18,17,24,19.30
2014,06,18,17,25,19.30
2014,06,18,17,26,19.30
2014,06,18,17,27,16.10
2014,06,18,17,28,16.10
2014,06,18,17,29,20.90
2014,06,18,17,30,16.10
2014,06,18,17,31,14.50
2014,06,18,17,32,19.30
2014,06,18,17,33,17.70
2014,06,18,17,34,14.50
2014,06,18,17,35,14.50
2014,06,18,17,36,19.30
2014,06,18,17,37,19.30
2014,06,18,17,38,17.70
2014,06,18,17,39,16.10
2014,06,18,17,40,16.10
2014,06,18,17,41,20.90
2014,06,18,17,42,17.70
2014,06,18,17,43,19.30
2014,06,18,17,44,17.70
2014,06,18,17,45,14.50
2014,06,18,17,46,19.30
2014,06,18,17,47,17.70
2014,06,18,17,48,14.50
2014,06,18,17,49,17.70
2014,06,18,17,50,12.90
2014,06,18,17,51,16.10
2014,06,18,17,52,14.50
2014,06,18,17,53,17.70
2014,06,18,17,54,19.30
2014,06,18,17,55,17.70
2014,06,18,17,56,16.10
2014,06,18,17,57,14.50
2014,06,18,17,58,11.30
2014,06,18,17,59,17.70
2014,06,18,18,00,17.70
2014,06,18,18,01,14.50
2014,06,18,18,02,19.30
2014,06,18,18,03,17.70
2014,06,18,18,04,17.70
2014,06,18,18,05,19.30
2014,06,18,18,06,24.20
2014,06,18,18,07,20.90
2014,06,18,18,08,16.10
2014,06,18,18,09,16.10
2014,06,18,18,10,17.70
2014,06,18,18,11,19.30
2014,06,18,18,12,20.90
2014,06,18,18,13,17.70
2014,06,18,18,14,20.90
2014,06,18,18,15,17.70
2014,06,18,18,16,19.30
2014,06,18,18,17,16.10
2014,06,18,18,18,16.10
2014,06,18,18,19,19.30
2014,06,18,18,20,20.90
2014,06,18,18,21,20.90
2014,06,18,18,22,19.30
2014,06,18,18,23,22.50
2014,06,18,18,24,20.90
2014,06,18,18,25,19.30
2014,06,18,18,26,20.90
2014,06,18,18,27,20.90
2014,06,18,18,28,16.10
2014,06,18,18,29,17.70
2014,06,18,18,30,19.30
2014,06,18,18,31,20.90
2014,06,18,18,32,20.90
2014,06,18,18,33,17.70
2014,06,18,18,34,24.20
2014,06,18,18,35,20.90
2014,06,18,18,36,20.90
2014,06,18,18,37,22.50
2014,06,18,18,38,17.70
2014,06,18,18,39,14.50
2014,06,18,18,40,16.10
2014,06,18,18,41,16.10
2014,06,18,18,42,14.50
2014,06,18,18,43,20.90
2014,06,18,18,44,22.50
2014,06,18,18,45,19.30
2014,06,18,18,46,17.70
2014,06,18,18,47,16.10
2014,06,18,18,48,17.70
2014,06,18,18,49,17.70
2014,06,18,18,50,22.50
2014,06,18,18,51,12.90
2014,06,18,18,52,20.90
2014,06,18,18,53,19.30
2014,06,18,18,54,12.90
2014,06,18,18,55,16.10
2014,06,18,18,56,11.30
2014,06,18,18,57,11.30
2014,06,18,18,58,12.90
2014,06,18,18,59,14.50
2014,06,18,19,00,16.10
2014,06,18,19,01,9.60
2014,06,18,19,02,14.50
2014,06,18,19,03,8.10
2014,06,18,19,04,14.50
2014,06,18,19,05,14.50
2014,06,18,19,06,14.50
2014,06,18,19,07,16.10
2014,06,18,19,08,16.10
2014,06,18,19,09,20.90
2014,06,18,19,10,11.30
2014,06,18,19,11,9.60
2014,06,18,19,12,20.90
2014,06,18,19,13,17.70
2014,06,18,19,14,11.30
2014,06,18,19,15,17.70
2014,06,18,19,16,16.10
2014,06,18,19,17,11.30
2014,06,18,19,18,8.10
2014,06,18,19,19,11.30
2014,06,18,19,20,12.90
2014,06,18,19,21,12.90
2014,06,18,19,22,11.30
2014,06,18,19,23,11.30
2014,06,18,19,24,12.90
2014,06,18,19,25,11.30
2014,06,18,19,26,9.60
2014,06,18,19,27,9.60
2014,06,18,19,28,11.30
2014,06,18,19,29,9.60
2014,06,18,19,30,9.60
2014,06,18,19,31,8.10
2014,06,18,19,32,11.30
2014,06,18,19,33,14.50
2014,06,18,19,34,12.90
2014,06,18,19,35,8.10
2014,06,18,19,36,6.40
2014,06,18,19,37,8.10
2014,06,18,19,38,14.50
2014,06,18,19,39,12.90
2014,06,18,19,40,11.30
2014,06,18,19,41,9.60
2014,06,18,19,42,8.10
2014,06,18,19,43,4.80
2014,06,18,19,44,6.40
2014,06,18,19,45,4.80
2014,06,18,19,46,8.10
2014,06,18,19,47,6.40
2014,06,18,19,48,9.60
2014,06,18,19,49,16.10
2014,06,18,19,50,6.40
2014,06,18,19,51,6.40
2014,06,18,19,52,11.30
2014,06,18,19,53,9.60
2014,06,18,19,54,11.30
2014,06,18,19,55,9.60
2014,06,18,19,56,4.80
2014,06,18,19,57,9.60
2014,06,18,19,58,8.10
2014,06,18,19,59,9.60
2014,06,18,20,00,14.50
2014,06,18,20,01,11.30
2014,06,18,20,02,6.40
2014,06,18,20,03,12.90
2014,06,18,20,04,11.30
2014,06,18,20,05,14.50
2014,06,18,20,06,11.30
2014,06,18,20,07,4.80
2014,06,18,20,08,4.80
2014,06,18,20,09,4.80
2014,06,18,20,10,6.40
2014,06,18,20,11,12.90
2014,06,18,20,12,8.10
2014,06,18,20,13,4.80
2014,06,18,20,15,4.80
2014,06,18,20,16,9.60
2014,06,18,20,17,8.10
2014,06,18,20,18,8.10
2014,06,18,20,19,11.30
2014,06,18,20,20,14.50
2014,06,18,20,21,14.50
2014,06,18,20,22,12.90
2014,06,18,20,23,11.30
2014,06,18,20,24,12.90
2014,06,18,20,25,16.10
2014,06,18,20,26,12.90
2014,06,18,20,27,6.40
2014,06,18,20,28,6.40
2014,06,18,20,29,8.10
2014,06,18,20,30,8.10
2014,06,18,20,31,16.10
2014,06,18,20,32,11.30
2014,06,18,20,33,11.30
2014,06,18,20,34,9.60
2014,06,18,20,35,11.30
2014,06,18,20,36,16.10
2014,06,18,20,37,12.90
2014,06,18,20,38,11.30
2014,06,18,20,39,12.90
2014,06,18,20,40,16.10
2014,06,18,20,41,16.10
2014,06,18,20,42,12.90
2014,06,18,20,43,14.50
2014,06,18,20,44,14.50
2014,06,18,20,45,11.30
2014,06,18,20,46,8.10
2014,06,18,20,47,17.70
2014,06,18,20,48,17.70
2014,06,18,20,49,11.30
2014,06,18,20,50,12.90
2014,06,18,20,51,14.50
2014,06,18,20,52,14.50
2014,06,18,20,53,19.30
2014,06,18,20,54,17.70
2014,06,18,20,55,16.10
2014,06,18,20,56,17.70
2014,06,18,20,57,16.10
2014,06,18,20,58,12.90
2014,06,18,20,59,12.90
2014,06,18,21,00,12.90
2014,06,18,21,01,11.30
2014,06,18,21,02,14.50
2014,06,18,21,03,11.30
2014,06,18,21,04,12.90
2014,06,18,21,05,14.50
2014,06,18,21,06,11.30
2014,06,18,21,07,9.60
2014,06,18,21,08,12.90
2014,06,18,21,09,9.60
2014,06,18,21,10,4.80
2014,06,18,21,11,11.30
2014,06,18,21,12,11.30
2014,06,18,21,13,9.60
2014,06,18,21,14,8.10
2014,06,18,21,15,14.50
2014,06,18,21,16,14.50
2014,06,18,21,17,14.50
2014,06,18,21,18,20.90
2014,06,18,21,19,17.70
2014,06,18,21,20,17.70
2014,06,18,21,21,12.90
2014,06,18,21,22,14.50
2014,06,18,21,23,12.90
2014,06,18,21,24,9.60
2014,06,18,21,25,14.50
2014,06,18,21,26,12.90
2014,06,18,21,27,17.70
2014,06,18,21,28,6.40
2014,06,18,21,29,17.70
2014,06,18,21,30,16.10
2014,06,18,21,31,12.90
2014,06,18,21,32,16.10
2014,06,18,21,33,14.50
2014,06,18,21,34,12.90
2014,06,18,21,35,14.50
2014,06,18,21,36,9.60
2014,06,18,21,37,6.40
2014,06,18,21,38,11.30
2014,06,18,21,39,6.40
2014,06,18,21,40,6.40
2014,06,18,21,41,8.10
2014,06,18,21,42,8.10
2014,06,18,21,43,6.40
2014,06,18,21,44,9.60
2014,06,18,21,45,9.60
2014,06,18,21,46,9.60
2014,06,18,21,47,12.90
2014,06,18,21,48,6.40
2014,06,18,21,49,4.80
2014,06,18,21,50,4.80
2014,06,18,21,51,11.30
2014,06,18,21,52,12.90
2014,06,18,21,53,8.10
2014,06,18,21,54,3.20